SL-16 DEB

基本信息
目录编号:
25409
目录名称:
SL-16 DEB
国际标识:
1998-045C
轨道中心:
EARTH
物体状态:
在轨
发射日期:
1998-07-28 UTC
轨道信息
数据来源: 国际轨道数据
星历时间: 2026-07-14T02:42:16+0800
半长轴: 7359.014km
偏心率: 0.0192582
轨道倾角: 71.082°
近地点辐角: 189.477°
升交点赤经: 331.278°
平近点角: 294.392°
近地点: 839.155km
远地点: 1122.599km
周期: 104.710分钟
每日圈数: 13.752237
详细信息
发射场:
TTMTR
轨道高度:
LEO
数据来源:
AOE Integration Group
参考系:
TEME
时间系统:
UTC
历元类型:
SGP4
2D轨道图
3D轨道图
轨道高度分析图
轨道倾角分析图
轨道综合分析图
查看轨道综合分析图